Weather History for KCNO - September, 2013

Change the Weather History Date:

Monday, September 23, 2013

  Actual Average Record
Temperature  
Mean Temperature 74 °F -  
Max Temperature 96 °F 86 °F 106 °F (2002)
Min Temperature 52 °F 54 °F 48 °F (2010)
Cooling Degree Days 9    
Growing Degree Days 24 (Base 50)    
Moisture  
Dew Point 44 °F    
Average Humidity 44    
Maximum Humidity 83    
Minimum Humidity 11    
Precipitation  
Precipitation 0.00 in - - ()
Sea Level Pressure  
Sea Level Pressure 29.85 in    
Wind  
Wind Speed 3 mph (West)    
Max Wind Speed 13 mph    
Max Gust Speed 16 mph    
Visibility 9 miles    
Events      
Averages and records for this station are not official NWS values.
T = Trace of Precipitation, MM = Missing Value Source: NWS Daily Summary

Daily Weather History Graph

Daily Weather History Graph

Search for Another Location

Airport or City:

Trip Planner

Search our weather history database for the weather conditions in past years. The results will help you decide how hot, cold, wet, or windy it might be!

Date:

Astronomy

Sep. 23, 2013 Rise Set
Actual Time 6:39 AM PDT 6:45 PM PDT
Civil Twilight 6:14 AM PDT 7:10 PM PDT
Nautical Twilight 5:45 AM PDT 7:39 PM PDT
Astronomical Twilight 5:16 AM PDT 8:08 PM PDT
Moon 9:34 PM PDT (9/23) 10:50 AM PDT (9/23)
Length of Visible Light 12h 55m
Length of Day
12h 05m
Waning Gibbous, 80% of the Moon is Illuminated
Sep 23
Waning Gibbous
Sep 26
Last Quarter
Oct 4
New
Oct 11
First Quarter
Oct 18
Full

Hourly Weather History & Observations

Time (PDT) Temp. Dew Point Humidity Pressure Visibility Wind Dir Wind Speed Gust Speed Precip Events Conditions
12:53 AM 55.9 °F 48.0 °F 75% 29.84 in 7.0 mi Calm Calm - N/A   Clear
1:53 AM 60.1 °F 48.0 °F 64% 29.83 in 8.0 mi NE 3.5 mph - N/A   Clear
2:53 AM 55.0 °F 46.9 °F 74% 29.83 in 8.0 mi Calm Calm - N/A   Clear
3:53 AM 55.0 °F 46.9 °F 74% 29.83 in 8.0 mi Calm Calm - N/A   Clear
4:53 AM 53.1 °F 46.0 °F 77% 29.83 in 8.0 mi Calm Calm - N/A   Clear
5:53 AM 52.0 °F 46.0 °F 80% 29.83 in 6.0 mi Calm Calm - N/A   Haze
6:53 AM 52.0 °F 46.9 °F 83% 29.85 in 10.0 mi Calm Calm - N/A   Clear
7:53 AM 60.1 °F 50.0 °F 69% 29.87 in 10.0 mi Calm Calm - N/A   Clear
8:53 AM 66.9 °F 50.0 °F 54% 29.88 in 10.0 mi Calm Calm - N/A   Clear
9:53 AM 75.0 °F 50.0 °F 41% 29.88 in 10.0 mi Calm Calm - N/A   Clear
10:53 AM 82.9 °F 45.0 °F 26% 29.87 in 10.0 mi Calm Calm - N/A   Clear
11:53 AM 86.0 °F 41.0 °F 20% 29.86 in 10.0 mi WNW 3.5 mph - N/A   Clear
12:53 PM 91.0 °F 36.0 °F 14% 29.85 in 10.0 mi Variable 3.5 mph - N/A   Clear
1:53 PM 93.0 °F 33.1 °F 12% 29.83 in 10.0 mi Variable 3.5 mph - N/A   Clear
2:53 PM 96.1 °F 33.1 °F 11% 29.82 in 10.0 mi West 5.8 mph - N/A   Clear
3:53 PM 96.1 °F 35.1 °F 12% 29.81 in 10.0 mi West 10.4 mph 16.1 mph N/A   Clear
4:53 PM 93.9 °F 35.1 °F 13% 29.80 in 10.0 mi West 9.2 mph - N/A   Clear
5:53 PM 88.0 °F 44.1 °F 22% 29.81 in 10.0 mi SW 12.7 mph - N/A   Clear
6:53 PM 82.0 °F 43.0 °F 25% 29.83 in 10.0 mi WSW 9.2 mph - N/A   Clear
7:53 PM 73.9 °F 41.0 °F 30% 29.85 in 10.0 mi West 8.1 mph - N/A   Clear
8:53 PM 72.0 °F 43.0 °F 35% 29.88 in 10.0 mi West 5.8 mph - N/A   Clear
9:53 PM 71.1 °F 43.0 °F 36% 29.89 in 10.0 mi West 4.6 mph - N/A   Clear
10:53 PM 64.9 °F 48.9 °F 56% 29.90 in 7.0 mi North 5.8 mph - N/A   Clear
11:53 PM 63.0 °F 50.0 °F 63% 29.90 in 6.0 mi NNW 6.9 mph - N/A   Haze